[[{"header":{"parameterUnit":"m.s-1","parameterCategory":1,"la1":30.2991,"la2":30.254,"lo1":-89.0895,"lo2":-89.0444,"dy":0.0017,"dx":0.0017,"nx":28,"ny":28,"refTime":"2023-11-16T03:00:00:Z","depth":0,"parameterNumber":2,"parameterNumberName":"U-component_of_WINDS"},"data":[0,0,0,0,0,0,0,0,0,0,0,0,0,0,0,0,0,0,0,0,0,0,0,0,0,0,0,0,0,0,0,0,0,0,0,0,0,0,0,0,0,0,0,0,0,0,0,0,0,0,0,0,0,0,0,0,0,0,-0.5967,-0.5967,0,-0.605,-0.6051,-0.6052,-0.6059,-0.6058,-0.6057,-0.6056,-0.6145,-0.6148,-0.6151,0,0,0,0,0,0,0,0,0,0,0,0,0,-0.5815,-0.5817,-0.5967,-0.5968,-0.5969,-0.605,-0.6051,-0.6053,-0.6059,-0.6058,-0.6057,-0.6056,-0.6144,-0.6148,-0.6152,0,0,0,0,0,0,0,0,0,0,0,0,0,-0.5888,-0.5818,-0.5966,-0.5982,-0.5984,-0.605,-0.6051,-0.6053,-0.6059,-0.6058,-0.6056,-0.6055,-0.6143,-0.6147,-0.6152,-0.621,0,0,-0.6167,-0.6169,0,0,0,0,0,0,0,0,-0.5884,-0.5893,-0.5978,-0.5981,-0.5983,-0.6043,-0.603,-0.6106,-0.606,-0.6031,-0.6056,-0.6054,-0.6112,-0.612,-0.6138,-0.6214,-0.6218,-0.6167,-0.617,-0.6172,-0.6174,0,0,0,0,0,0,0,-0.5879,-0.589,-0.6,-0.598,-0.5983,-0.5985,-0.5994,-0.6045,-0.6078,-0.6033,-0.6034,-0.6043,-0.6113,-0.6134,-0.6141,-0.6219,-0.6167,-0.6172,-0.6175,-0.6176,-0.6347,-0.6348,0,0,0,0,0,0,-0.587,-0.5886,-0.5997,-0.6002,-0.5929,-0.5989,-0.5999,-0.6025,-0.6078,-0.6084,-0.6044,-0.6043,-0.6126,-0.6135,-0.6144,-0.6215,-0.6172,-0.6177,-0.618,-0.6345,-0.6347,-0.6349,0,0,0,0,0,0,-0.5867,-0.588,-0.5994,-0.5944,-0.5959,-0.5993,-0.6022,-0.6027,-0.6048,-0.6086,-0.6093,-0.6059,-0.6125,-0.6137,-0.6193,-0.6219,-0.6179,-0.6184,-0.6343,-0.6346,-0.6348,-0.6359,0,0,0,0,0,0,-0.5863,-0.5879,-0.5901,-0.5945,-0.5961,-0.6041,-0.6024,-0.603,-0.6056,-0.6055,-0.6102,-0.6108,-0.6125,-0.6186,-0.6198,-0.6224,-0.6187,-0.6341,-0.6344,-0.6347,-0.6356,-0.6361,-0.6365,0,0,0,0,0,-0.5857,-0.5901,-0.5902,-0.5915,-0.5989,-0.6043,-0.6052,-0.607,-0.6058,-0.608,-0.6105,-0.6107,-0.6213,-0.6192,-0.6205,-0.6234,-0.634,-0.6344,-0.6347,-0.6354,-0.636,-0.6365,0,0,0,0,0,0,-0.5861,-0.5907,-0.5908,-0.5968,-0.6001,-0.6044,-0.6073,-0.6076,-0.6115,-0.6113,-0.6134,-0.6144,-0.62,-0.6222,-0.6197,-0.6292,-0.6275,-0.6282,-0.6276,-0.6282,-0.6287,-0.6281,-0.6191,0,0,0,0,0,-0.5868,-0.5906,-0.5945,-0.5994,-0.601,-0.6039,-0.6063,-0.6073,-0.6109,-0.6124,-0.6153,-0.6188,-0.623,-0.6257,-0.6297,-0.6359,-0.637,-0.6385,-0.6389,-0.6393,-0.6399,-0.6434,-0.6441,-0.6361,-0.6361,-0.6361,0,0,-0.5884,-0.5914,-0.5938,-0.5995,-0.6022,-0.6063,-0.6051,-0.6094,-0.6124,-0.6131,-0.6186,-0.6208,-0.6249,-0.6308,-0.6336,-0.6329,-0.6423,-0.6398,-0.64,-0.6404,-0.6438,-0.6446,-0.6452,-0.6363,-0.6363,-0.6362,0,0,-0.5935,-0.5961,-0.6004,-0.6031,-0.6072,-0.609,-0.61,-0.6143,-0.6157,-0.6212,-0.6218,-0.6255,-0.6326,-0.6355,-0.6379,-0.6439,-0.6443,-0.6452,-0.6476,-0.651,-0.6516,-0.6522,-0.6544,-0.6552,-0.6457,-0.6457,-0.6457,0,-0.595,-0.601,-0.6026,-0.607,-0.6095,-0.6101,-0.6146,-0.6171,-0.6224,-0.6242,-0.6232,-0.6321,-0.6349,-0.6416,-0.643,-0.6449,-0.6463,-0.6448,-0.6514,-0.652,-0.6525,-0.6547,-0.6555,-0.6458,-0.6458,-0.6458,-0.6458,0,-0.6028,-0.6069,-0.61,-0.6149,-0.6177,-0.6221,-0.6245,-0.6272,-0.628,-0.6299,-0.6356,-0.6389,-0.6437,-0.6453,-0.6461,-0.652,-0.6515,-0.6509,-0.6493,-0.6534,-0.6554,-0.6563,-0.646,-0.6459,-0.6459,-0.6459,0,0,-0.6084,-0.6141,-0.6152,-0.6174,-0.6219,-0.6252,-0.6296,-0.6341,-0.6364,-0.64,-0.6438,-0.6497,-0.6492,-0.652,-0.6531,-0.6561,-0.6607,-0.6552,-0.6553,-0.6562,-0.6675,-0.668,-0.6689,-0.6609,-0.661,-0.6612,-0.6672,0,-0.6141,-0.6218,-0.6234,-0.6301,-0.634,-0.6346,-0.6384,-0.6416,-0.6436,-0.6472,-0.6493,-0.6536,-0.6525,-0.6542,-0.6571,-0.6595,-0.663,-0.6591,-0.6646,-0.6647,-0.6637,-0.67,-0.6706,-0.6761,-0.668,-0.6682,-0.6683,0,-0.6217,-0.6253,-0.6325,-0.6364,-0.6381,-0.6415,-0.6458,-0.6492,-0.6529,-0.6541,-0.657,-0.6579,-0.6625,-0.6605,-0.667,-0.6643,-0.6666,-0.6682,-0.6684,-0.6691,-0.6669,-0.671,-0.6779,-0.6788,-0.6695,-0.6694,-0.6693,0,-0.6253,-0.6319,-0.6371,-0.6389,-0.6436,-0.646,-0.6481,-0.6516,-0.6542,-0.6579,-0.6597,-0.6639,-0.6663,-0.6696,-0.6716,-0.6699,-0.678,-0.6761,-0.6792,-0.6791,-0.681,-0.6809,-0.6885,-0.6822,-0.6822,-0.6822,-0.6822,0,-0.6315,-0.6359,-0.6387,-0.6419,-0.6468,-0.6485,-0.6534,-0.6554,-0.6585,-0.6622,-0.6629,-0.6663,-0.6687,-0.6724,-0.674,-0.6792,-0.6802,-0.6814,-0.6818,-0.6814,-0.6813,-0.6831,-0.6828,-0.6824,-0.6824,-0.6823,-0.6823,0,-0.6364,-0.6384,-0.6441,-0.648,-0.6491,-0.6525,-0.6559,-0.6591,-0.6609,-0.6655,-0.6667,-0.6696,-0.6741,-0.6763,-0.6819,-0.683,-0.6889,-0.689,-0.6877,-0.6878,-0.6908,-0.6906,-0.7,-0.7014,-0.694,-0.6941,-0.6942,0,-0.6403,-0.6436,-0.6479,-0.6503,-0.6524,-0.6563,-0.659,-0.6607,-0.6635,-0.6678,-0.6705,-0.6749,-0.6786,-0.6858,-0.6885,-0.6927,-0.693,-0.696,-0.6937,-0.6932,-0.6932,-0.693,-0.6934,-0.6965,-0.6966,-0.6966,-0.6967,0,-0.6471,-0.6479,-0.6516,-0.6556,-0.6587,-0.662,-0.6653,-0.6673,-0.6696,-0.6726,-0.6771,-0.68,-0.6856,-0.6901,-0.6945,-0.6968,-0.6972,-0.6973,-0.6983,-0.698,-0.6972,-0.6978,-0.6889,-0.6972,-0.6971,-0.6971,-0.6971,-0.697,-0.6517,-0.6547,-0.6581,-0.6622,-0.6648,-0.6678,-0.671,-0.6731,-0.6769,-0.6816,-0.6824,-0.6872,-0.6907,-0.6967,-0.6991,-0.703,-0.7023,-0.7037,-0.7041,-0.7044,-0.7046,-0.6964,-0.7038,-0.7037,-0.7037,-0.7037,-0.7037,0,-0.6586,-0.6607,-0.6645,-0.669,-0.6722,-0.6721,-0.6757,-0.6784,-0.6826,-0.6858,-0.6894,-0.6946,-0.6989,-0.7019,-0.7063,-0.7088,-0.7091,-0.7099,-0.7098,-0.7103,-0.7049,-0.7037,-0.7096,-0.7096,-0.7096,-0.7096,-0.7096,-0.7096,-0.6625,-0.6677,-0.6689,-0.6753,-0.6775,-0.6821,-0.6842,-0.687,-0.6895,-0.6953,-0.6988,-0.7006,-0.7038,-0.7084,-0.7124,-0.7131,-0.7148,-0.7156,-0.7164,-0.7113,-0.7107,-0.7101,-0.709,-0.7159,-0.7159,-0.7216,-0.7216,-0.7217]},{"header":{"parameterUnit":"m.s-1","parameterCategory":1,"la1":30.2991,"la2":30.254,"lo1":-89.0895,"lo2":-89.0444,"dy":0.0017,"dx":0.0017,"nx":28,"ny":28,"refTime":"2023-11-16T03:00:00:Z","depth":0,"parameterNumber":3,"parameterNumberName":"V-component_of_WINDS"},"data":[0,0,0,0,0,0,0,0,0,0,0,0,0,0,0,0,0,0,0,0,0,0,0,0,0,0,0,0,0,0,0,0,0,0,0,0,0,0,0,0,0,0,0,0,0,0,0,0,0,0,0,0,0,0,0,0,0,0,-2.8952,-2.8953,0,-2.8989,-2.8989,-2.8989,-2.8938,-2.8936,-2.8935,-2.8933,-2.8967,-2.8969,-2.8972,0,0,0,0,0,0,0,0,0,0,0,0,0,-2.8837,-2.8839,-2.8952,-2.8953,-2.8953,-2.8989,-2.8989,-2.899,-2.8939,-2.8936,-2.8934,-2.8932,-2.8966,-2.8969,-2.8972,0,0,0,0,0,0,0,0,0,0,0,0,0,-2.8881,-2.884,-2.8952,-2.8932,-2.8931,-2.8989,-2.8989,-2.899,-2.8939,-2.8936,-2.8934,-2.8931,-2.8965,-2.8969,-2.8973,-2.9051,0,0,-2.8984,-2.8986,0,0,0,0,0,0,0,0,-2.8879,-2.8886,-2.8935,-2.8934,-2.8932,-2.8956,-2.8961,-2.901,-2.894,-2.8936,-2.8933,-2.893,-2.8965,-2.8969,-2.8982,-2.9052,-2.9054,-2.8985,-2.8987,-2.8989,-2.899,0,0,0,0,0,0,0,-2.8876,-2.8884,-2.8967,-2.8935,-2.8934,-2.8921,-2.8924,-2.897,-2.8965,-2.8936,-2.8932,-2.8937,-2.8964,-2.8978,-2.8982,-2.9054,-2.8985,-2.8988,-2.8991,-2.8992,-2.9192,-2.9195,0,0,0,0,0,0,-2.8875,-2.8881,-2.8965,-2.8968,-2.8898,-2.8925,-2.8929,-2.8951,-2.8965,-2.8964,-2.894,-2.8935,-2.8973,-2.8978,-2.8983,-2.9077,-2.8989,-2.8992,-2.8995,-2.9189,-2.9193,-2.9196,0,0,0,0,0,0,-2.8873,-2.8883,-2.8964,-2.8924,-2.8933,-2.893,-2.8956,-2.8953,-2.8967,-2.8968,-2.8966,-2.8955,-2.8971,-2.8978,-2.9035,-2.9077,-2.8994,-2.8998,-2.9186,-2.9191,-2.9195,-2.9264,0,0,0,0,0,0,-2.887,-2.8883,-2.8913,-2.8925,-2.8935,-2.9016,-2.8958,-2.8956,-2.8974,-2.8969,-2.8982,-2.8981,-2.8969,-2.9029,-2.9039,-2.9081,-2.9001,-2.9182,-2.9188,-2.9193,-2.9258,-2.9271,-2.9281,0,0,0,0,0,-2.8866,-2.893,-2.8915,-2.8925,-2.8973,-2.9019,-2.9025,-2.9011,-2.8978,-2.9008,-2.9009,-2.8981,-2.9071,-2.9036,-2.9046,-2.909,-2.9179,-2.9186,-2.9193,-2.9253,-2.9268,-2.9281,0,0,0,0,0,0,-2.8922,-2.8931,-2.8915,-2.8984,-2.9002,-2.901,-2.9048,-2.9027,-2.9052,-2.9046,-2.9026,-2.9029,-2.9091,-2.9096,-2.9057,-2.9167,-2.912,-2.9129,-2.9162,-2.9176,-2.9188,-2.9186,-2.9004,0,0,0,0,0,-2.8943,-2.898,-2.8986,-2.9047,-2.9056,-2.9051,-2.907,-2.9058,-2.9074,-2.9081,-2.9085,-2.9101,-2.9133,-2.9155,-2.9184,-2.9258,-2.9261,-2.9294,-2.9305,-2.9315,-2.9323,-2.9364,-2.9379,-2.9218,-2.9218,-2.9218,0,0,-2.8986,-2.8995,-2.902,-2.9058,-2.907,-2.9109,-2.9057,-2.9099,-2.9128,-2.9087,-2.9142,-2.9146,-2.9162,-2.9229,-2.9259,-2.9235,-2.9368,-2.9323,-2.9331,-2.9334,-2.9372,-2.9388,-2.9401,-2.9223,-2.9222,-2.9221,0,0,-2.9084,-2.9094,-2.9148,-2.9161,-2.918,-2.9176,-2.9189,-2.9201,-2.9202,-2.9258,-2.9228,-2.9261,-2.9316,-2.933,-2.9344,-2.9449,-2.9424,-2.9459,-2.9519,-2.9559,-2.9572,-2.9583,-2.9622,-2.9636,-2.9467,-2.9467,-2.9467,0,-2.9134,-2.9192,-2.9177,-2.9223,-2.9241,-2.9207,-2.926,-2.9273,-2.93,-2.9314,-2.9287,-2.9357,-2.9365,-2.9435,-2.9461,-2.9473,-2.9488,-2.9458,-2.9572,-2.9583,-2.9593,-2.9629,-2.9644,-2.9471,-2.9471,-2.947,-2.947,0,-2.9254,-2.9295,-2.9335,-2.9365,-2.9387,-2.9436,-2.9428,-2.9452,-2.9438,-2.9437,-2.9494,-2.9504,-2.9535,-2.955,-2.9536,-2.9619,-2.9604,-2.9575,-2.9527,-2.9613,-2.9647,-2.9661,-2.9477,-2.9476,-2.9474,-2.9473,0,0,-2.9388,-2.941,-2.9425,-2.9439,-2.9458,-2.9488,-2.9536,-2.9568,-2.959,-2.961,-2.965,-2.9698,-2.9672,-2.9688,-2.9675,-2.971,-2.9794,-2.9676,-2.9676,-2.9699,-2.9887,-2.9911,-2.9927,-2.9778,-2.978,-2.9782,-2.9886,0,-2.9488,-2.9572,-2.956,-2.9641,-2.9679,-2.9648,-2.9689,-2.9705,-2.9705,-2.9737,-2.9736,-2.9772,-2.9733,-2.9743,-2.9776,-2.9777,-2.9832,-2.9769,-2.9815,-2.9817,-2.9814,-2.9945,-2.9969,-3.0067,-2.99,-2.9902,-2.9903,0,-2.9615,-2.9642,-2.9727,-2.9742,-2.9757,-2.9795,-2.9824,-2.9855,-2.9872,-2.987,-2.9889,-2.987,-2.9917,-2.9868,-2.9934,-2.9891,-2.9909,-2.9913,-2.9916,-2.9921,-2.9866,-2.9954,-3.0097,-3.0113,-2.9924,-2.9922,-2.9921,0,-2.9707,-2.9763,-2.9822,-2.9835,-2.9853,-2.988,-2.9889,-2.9904,-2.9924,-2.9949,-2.9963,-2.9992,-3.0009,-3.0032,-3.0022,-2.9987,-3.009,-3.0039,-3.0089,-3.009,-3.0113,-3.0112,-3.0263,-3.0123,-3.0122,-3.0122,-3.0122,0,-2.982,-2.9873,-2.9864,-2.9901,-2.996,-2.9945,-3.0004,-3.0009,-3.0022,-3.0059,-3.0032,-3.0067,-3.005,-3.0083,-3.0075,-3.0132,-3.0139,-3.0138,-3.0136,-3.0142,-3.0142,-3.0154,-3.0147,-3.0126,-3.0125,-3.0124,-3.0124,0,-2.9932,-2.9928,-2.9991,-3.0003,-3.0008,-3.0051,-3.0062,-3.0096,-3.0094,-3.014,-3.015,-3.0148,-3.0186,-3.0177,-3.0218,-3.0213,-3.0284,-3.0272,-3.0279,-3.0277,-3.0328,-3.0324,-3.0493,-3.0515,-3.0359,-3.036,-3.0362,0,-3.0005,-3.0046,-3.0064,-3.0088,-3.0099,-3.0136,-3.0158,-3.0145,-3.0168,-3.0192,-3.0223,-3.0259,-3.0287,-3.0349,-3.035,-3.0382,-3.0371,-3.0428,-3.0376,-3.0381,-3.0374,-3.0372,-3.0377,-3.0439,-3.0441,-3.0442,-3.0443,0,-3.0136,-3.0133,-3.0165,-3.0198,-3.0225,-3.025,-3.0272,-3.0292,-3.0281,-3.0308,-3.0348,-3.037,-3.0412,-3.0449,-3.0478,-3.0485,-3.0463,-3.046,-3.0473,-3.0481,-3.0484,-3.0484,-3.0309,-3.0456,-3.0455,-3.0454,-3.0453,-3.0453,-3.0232,-3.0268,-3.0287,-3.0325,-3.034,-3.0362,-3.0395,-3.0398,-3.0431,-3.0467,-3.0456,-3.0501,-3.0518,-3.0556,-3.0567,-3.0602,-3.058,-3.0599,-3.0605,-3.061,-3.0617,-3.0477,-3.0607,-3.0606,-3.0606,-3.0606,-3.0605,0,-3.0363,-3.0374,-3.0409,-3.0442,-3.0472,-3.0449,-3.0472,-3.0499,-3.0539,-3.0557,-3.0586,-3.0632,-3.0667,-3.0672,-3.0705,-3.0732,-3.0722,-3.0741,-3.074,-3.0742,-3.0634,-3.0619,-3.0748,-3.0748,-3.0748,-3.0748,-3.0748,-3.0748,-3.0435,-3.0495,-3.0494,-3.0561,-3.0571,-3.0617,-3.0632,-3.0652,-3.0667,-3.072,-3.075,-3.0753,-3.0765,-3.08,-3.0831,-3.0831,-3.0845,-3.0868,-3.0865,-3.0764,-3.075,-3.0736,-3.0723,-3.0871,-3.0871,-3.0971,-3.0972,-3.0972]}]]